Jump to content
Sign in to follow this  
Jazz

FSATIS. Бесплатный погодник для полетов онлайн.

Recommended Posts

Всем привет, я вот почитал ветку и заметил, что многие жалуются на то, что падает видимость до нуля. Я когда год назад начал пользоваться FSATIS, то тоже такое было и очень бесило. Загружаешься в порту и пока готовишься к вылету видимость упала до нуля. Так вот, я кажется заметил закономерность. Вот допустим UATE 261930Z 33004MPS 9999 BKN043 M06/M10 Q1028 R30/0///70 NOSIG RMK QFE770/1026

 

Короче если в числе, отмеченном красным есть знак / (один или несколько) , то видимость будет падать, Если число состоит из одних нулей, кроме двух последних цифр (R30/000055), то будет падать. А если в нём есть несколько нулей (R30/304055), то может будет, может нет, как повезёт. Просто если при загрузке погоды видишь, что есть нули или "слеши", то нужно убрать галочку с WX Processing, а после взлёта поставить обратно. Так же и на посадке, если есть нули и "слеши" в аэропорту посадки, то галочку с WX Processing убрать. В общем прога некорректно воспринимает нули и "слеши".

  • Downvote 1

Share this post


Link to post
Share on other sites

Уважаемые, помогите мне, круворукому))))) как активировать войспак? Все "галочки" стоят, но при запуске проги ругается, что войспак не установлен... Куда правильно кидать содержимое папки voice_rus?

Share this post


Link to post
Share on other sites

Использую FSATIS как погодник для оффлайн полетов.

Подскажите какой параметр можно использовать в качестве vatsim_url, чтобы иметь более представительный набор метаров для России.

По жизни пользуюсь этим ресурсом http://meteocenter.ru/briefing/data

Но натравить на него FSATIS не получилось. Не могу понять как оттуда выкусить один метар для конкретного порта.

Edited by 4beer

Share this post


Link to post
Share on other sites

Использую FSATIS как погодник для оффлайн полетов.

Подскажите какой параметр можно использовать в качестве vatsim_url, чтобы иметь более представительный набор метаров для России.

По жизни пользуюсь этим ресурсом http://meteocenter.ru/briefing/data

Но натравить на него FSATIS не получилось. Не могу понять как оттуда выкусить один метар для конкретного порта.

Вводите vatsim_url=noaa

  • Upvote 1

Share this post


Link to post
Share on other sites

Вводите vatsim_url=noaa

Спасибо. То, что нужно.

Share this post


Link to post
Share on other sites

С недавних пор FSATIS перестал генерировать ветер на эшелоне и температура воздуха на высоте тоже какая-то нереальная: если на земле по метару -11, то затем температура плавно повышается до 0 и остается таковой с некоторой высоты. Раньше в настройказ был прописан этот сервер метар http://usa-s1.vatsim.net/data/metar.php?id=, FSATIS работал нормально, недели 3 назад ссылка перестала работать, теперь пользуюсь этой http://metar.vatsim.net/metar.php?id=, пытался также прописывать IVAO или NOAA, эффект тот же - нет ветра на эшелоне и нереально высокая температура.

Edited by Pantograph

Share this post


Link to post
Share on other sites

С недавних пор FSATIS перестал генерировать ветер на эшелоне и температура воздуха на высоте тоже какая-то нереальная...

Есть такое. При отключении "Winds Aloft Processing" температура и ветер, вроде как, в норму приходят. Сейчас на FL290 -40 вместо нуля.

Share this post


Link to post
Share on other sites

У меня тоже такая проблема, стал замечать что во всплывающем окне перестал показывать погоду. Так же заметил ветер на ешелоне всегда 0, начинает меняться только на подходе к аэропорту. 

Подозреваю что ссылка перестала работать на погоду.

 Кто нибудь что то замечал?

Share this post


Link to post
Share on other sites

Автор где -то писал, что ветер на эшелоне в текущей версии не качается. Чтобы использовались статистические данные о ветре на эшелонах (всегда одни и те же) надо wind aloft как раз таки отключить !

Share this post


Link to post
Share on other sites

Подозреваю что ссылка перестала работать на погоду.

Скорей всего дело в этом:

 

Раньше в настройказ был прописан этот сервер метар http://usa-s1.vatsim.net/data/metar.php?id=, FSATIS работал нормально, недели 3 назад ссылка перестала работать, теперь пользуюсь этой http://metar.vatsim.net/metar.php?id=,

Чтобы использовались статистические данные о ветре на эшелонах (всегда одни и те же) надо wind aloft как раз таки отключить !

Так хохма в том, что в этой же версии раньше всё работало с включённым wind aloft!

Share this post


Link to post
Share on other sites

Это какой-то булждающий глюк. С включенным wind aloft программа то работает, то нет. Поэтому проще отключить. По моему  этот глюк зависит от местонахождения. Например в Симферополе всегда жара на эшелоне, а если уйти подальше в сторону Анапы, то температура нормализуется. Ещё где-то между Толмачёво и Ханты-Мансийском  тоже такое было.

  • Downvote 1

Share this post


Link to post
Share on other sites

В итоге поставил этот адрес:

[settings]
 
Отключил wind aloft и все заработало, обновляется, и на шелоне ветер и температура нормальная.
  • Upvote 3

Share this post


Link to post
Share on other sites

Волгоград Гумрак. Fsatis (обновление погоды каждые 30 минут) + Настройки фсупика рекомендованные: За время руления видимость менялась каждые секунд 15-ть,  от дымки вдалеке, до чистого неба, плюс вот такие плоские облака. :(

post-47725-0-28547900-1458301531_thumb.jpg

Share this post


Link to post
Share on other sites

 Никак не могу подружить FSATIS с 10-кой. ФСУПИК стоит,ПМДГ работает,ФСИНН то же. Есть мысли?

Share this post


Link to post
Share on other sites

Чует моё сердце-бросили ФСАТИС разработчики....А жаль.Программа интересная.

Share this post


Link to post
Share on other sites

Все еще пользуетесь? Я думал уже времена FSATIS прошли давно )))

Share this post


Link to post
Share on other sites

Все еще пользуетесь? Я думал уже времена FSATIS прошли давно )))

Так ведь хорошая вещь, если знать, как обращаться.

  • Downvote 1

Share this post


Link to post
Share on other sites

Все еще пользуетесь? Я думал уже времена FSATIS прошли давно )))

 

Еще как пользуемся! Основной погодник в симе.  :)

Но есть вопросы о которых писали выше, они так и всплывают. 

1. В наборе эшелона замирает температура, "толкнуть" её получается только отключением WINDS ALOFT PROCESSING и далее REFRESH WEATHE, тогда она продолжает понижаться. На эшелоне при смене станции тоже проседает температура, скачки могут варьироваться  от -49  до -12.

2. Если в сводке METARа в группе состояния ВПП указаны первые нули то видимость начинает "гулять" от максимальной до минимальной. Из наблюдения: при смене курса в воздухе или при смене направления движения по перрону видимость снова восстанавливается.

 

 

19:13:11 init begin FSATIS version 12.4.22

19:13:11 options online wx wind noaa

19:13:13 FSUIPC 3.930

19:13:16 wx init begin ===

19:13:16 XXXX 0mb

19:13:16 XXXX 0C -> 0C

19:13:17 wx cleared

19:13:20 closest station found URKA (FS=URKK)

19:13:20 received URKA 101900Z 09001MPS CAVOK 19/16 Q1013 R04/010070 RMK QFE756/1008

19:13:21 load aloft

19:13:21 URKK STAB0 BASE4900 LRATE10.000000 clear

19:13:21 wx generated for URKK URKA 101900Z 09001MPS CAVOK 19/16 Q1013 R04/010070 RMK QFE756/1008

19:13:22 URKK 1013mb

19:13:22 URKK 19C -> 0C

19:13:23 KSC set to 86 based on wx

19:13:23 fs9 wx updated for URKK

19:13:23 wx init end ===

19:29:42 wx upd begin $$$

19:29:42 received URKA 101900Z 09001MPS CAVOK 19/16 Q1013 R04/010070 RMK QFE756/1008

19:29:42 wx upd end $$$

19:45:56 wx upd begin $$$

19:45:56 received URKA 101930Z VRB01MPS CAVOK 18/16 Q1013 R04/010070 RMK QFE756/1008

19:45:56 URKK STAB0 BASE4800 LRATE10.000000 clear

19:45:56 wx generated for URKK URKA 101930Z VRB01MPS CAVOK 18/16 Q1013 R04/010070 RMK QFE756/1008

19:45:56 URKK 1013mb

19:45:56 URKK 18C -> 0C

19:45:58 KSC set to 87 based on wx

19:45:58 fs9 wx updated for URKK

19:45:58 wx upd end $$$

19:50:27 wx refresh begin $$$

19:50:27 closest station found URKA (FS=URKK)

19:50:28 received URKA 101930Z VRB01MPS CAVOK 18/16 Q1013 R04/010070 RMK QFE756/1008

19:50:28 simulated wind ok

19:50:28 URKK STAB0 BASE4800 LRATE10.000000 clear

19:50:28 wx generated for URKK URKA 101930Z VRB01MPS CAVOK 18/16 Q1013 R04/010070 RMK QFE756/1008

19:50:28 URKK 1013mb

19:50:28 URKK 18C -> -85C

19:50:29 KSC set to 87 based on wx

19:50:29 fs9 wx updated for URKK

19:50:29 wx refresh end $$$

19:55:40 closest station found URKK (FS=URKK)

19:55:40 received URKK 101930Z 10004MPS 9999 SCT050CB 20/17 Q1013 R23C/CLRD60 TEMPO 2000 TSRA SCT007 BKN020CB RMK QFE756

19:55:43 load aloft

19:55:43 URKK STAB0 BASE5000 LRATE10.000000 5118,12368,4,9,0,0,0,0,10

19:55:43 wx generated for URKK URKK 101930Z 10004MPS 9999 SCT050CB 20/17 Q1013 R23C/CLRD60 TEMPO 2000 TSRA SCT007 BKN020CB RMK QFE756

19:55:43 URKK 1013mb

19:55:43 URKK 20C -> 0C

19:55:45 KSC set to 87 based on wx

19:55:45 fs9 wx updated for URKK

19:56:22 wx refresh begin $$$

19:56:22 closest station found URRR (FS=URRR)

19:56:22 received URRR 101930Z 01002MPS 8000 FEW///CB 23/12 Q1012 R04/CLRD70 NOSIG RMK QFE752/1003

19:56:22 simulated wind ok

19:56:22 URRR STAB-1 BASE5000 LRATE22.000000 5253,15203,1,9,1,1,0,0,22

19:56:22 wx generated for URRR URRR 101930Z 01002MPS 8000 FEW///CB 23/12 Q1012 R04/CLRD70 NOSIG RMK QFE752/1003

19:56:22 URRR 1012mb

19:56:22 URRR 23C -> -85C

19:56:24 KSC set to 80 based on wx

19:56:24 fs9 wx updated for URRR

19:56:24 wx refresh end $$$

20:12:26 wx upd begin $$$

20:12:26 received URRR 102000Z 34003MPS 8000 NSC 22/12 Q1012 R04/CLRD70 NOSIG RMK QFE752/1003

20:12:26 URRR STAB-1 BASE4900 LRATE10.000000 3553,4153,1,9,0,2,0,0,10

20:12:26 wx generated for URRR URRR 102000Z 34003MPS 8000 NSC 22/12 Q1012 R04/CLRD70 NOSIG RMK QFE752/1003

20:12:26 URRR 1012mb

20:12:26 URRR 22C -> -55C

20:12:28 KSC set to 81 based on wx

20:12:28 fs9 wx updated for URRR

20:12:28 wx upd end $$$

20:14:37 closest station found UKCW (FS=UKCC)

20:14:38 received UKCW 080100Z 00000MPS CAVOK 20/08 Q1015 0909//70 NOSIG

20:14:39 load aloft

20:14:39 UKCC STAB2 BASE4400 LRATE10.000000 clear

20:14:39 wx generated for UKCC UKCW 080100Z 00000MPS CAVOK 20/08 Q1015 0909//70 NOSIG

20:14:39 UKCC 1015mb

20:14:39 UKCC 20C -> 0C

20:14:40 KSC set to 70 based on wx

20:14:40 fs9 wx updated for UKCC

20:30:24 wx upd begin $$$

20:30:24 received UKCW 080100Z 00000MPS CAVOK 20/08 Q1015 0909//70 NOSIG

20:30:24 wx upd end $$$

20:32:30 closest station found UUOO (FS=UUOO)

20:32:30 received UUOO 102000Z VRB01MPS CAVOK 15/12 Q1012 R30/090070 NOSIG RMK QFE745

20:32:31 load aloft

20:32:31 UUOO STAB-1 BASE4200 LRATE10.000000 clear

20:32:31 wx generated for UUOO UUOO 102000Z VRB01MPS CAVOK 15/12 Q1012 R30/090070 NOSIG RMK QFE745

20:32:31 UUOO 1012mb

20:32:31 UUOO 15C -> 0C

20:32:32 KSC set to 84 based on wx

20:32:32 fs9 wx updated for UUOO

20:33:04 wx refresh begin $$$

20:33:05 closest station found UUOO (FS=UUOO)

20:33:05 received UUOO 102000Z VRB01MPS CAVOK 15/12 Q1012 R30/090070 NOSIG RMK QFE745

20:33:05 simulated wind ok

20:33:05 UUOO STAB-1 BASE4200 LRATE10.000000 clear

20:33:05 wx generated for UUOO UUOO 102000Z VRB01MPS CAVOK 15/12 Q1012 R30/090070 NOSIG RMK QFE745

20:33:05 UUOO 1012mb

20:33:05 UUOO 15C -> -85C

20:33:06 KSC set to 84 based on wx

20:33:06 fs9 wx updated for UUOO

20:33:06 wx refresh end $$$

20:48:47 wx upd begin $$$

20:48:48 received UUOO 102000Z VRB01MPS CAVOK 15/12 Q1012 R30/090070 NOSIG RMK QFE745

20:48:48 wx upd end $$$

21:04:33 closest station found UUDD (FS=UUDD)

21:04:34 received UUDD 102030Z 24002MPS 210V300 CAVOK 16/15 Q1009 R88/010095 NOSIG

21:04:35 load aloft

21:04:35 UUDD STAB-4 BASE3400 LRATE10.000000 clear

21:04:35 wx generated for UUDD UUDD 102030Z 24002MPS 210V300 CAVOK 16/15 Q1009 R88/010095 NOSIG

21:04:35 UUDD 1009mb

21:04:35 UUDD 16C -> 0C

21:04:36 KSC set to 87 based on wx

21:04:36 fs9 wx updated for UUDD

21:20:25 wx upd begin $$$

21:20:26 received UUDD 102100Z 24002MPS 210V280 CAVOK 16/15 Q1009 R88/010095 NOSIG

21:20:26 UUDD STAB-4 BASE3400 LRATE10.000000 clear

21:20:26 wx generated for UUDD UUDD 102100Z 24002MPS 210V280 CAVOK 16/15 Q1009 R88/010095 NOSIG

21:20:26 UUDD 1009mb

21:20:26 UUDD 16C -> 0C

21:20:27 KSC set to 87 based on wx

21:20:27 fs9 wx updated for UUDD

21:20:27 wx upd end $$$

21:23:29 load atis begin %%%

21:23:31 atis

21:23:31 received UUWW 102100Z 22003MPS CAVOK 15/14 Q1009 R24/000070 NOSIG

21:23:31 KSC set to 87 based on atis

21:23:32 load atis end %%%

21:24:17 closest station found UUWW (FS=UUWW)

21:24:17 received UUWW 102100Z 22003MPS CAVOK 15/14 Q1009 R24/000070 NOSIG

21:24:18 load aloft

21:24:18 UUWW STAB-4 BASE3300 LRATE10.000000 clear

21:24:18 wx generated for UUWW UUWW 102100Z 22003MPS CAVOK 15/14 Q1009 R24/000070 NOSIG

21:24:18 UUWW 1009mb

21:24:18 UUWW 15C -> 0C

21:24:19 KSC set to 86 based on wx

21:24:19 fs9 wx updated for UUWW

21:26:24 wx upd begin $$$

21:26:24 received UUWW 102100Z 22003MPS CAVOK 15/14 Q1009 R24/000070 NOSIG

21:26:24 wx upd end $$$

21:28:36 wx upd begin $$$

21:28:36 received UUWW 102100Z 22003MPS CAVOK 15/14 Q1009 R24/000070 NOSIG

21:28:36 wx upd end $$$

21:30:58 wx upd begin $$$

21:30:58 received UUWW 102100Z 22003MPS CAVOK 15/14 Q1009 R24/000070 NOSIG

21:30:58 wx upd end $$$

21:32:38 wx upd begin $$$

21:32:38 received UUWW 102100Z 22003MPS CAVOK 15/14 Q1009 R24/000070 NOSIG

21:32:38 wx upd end $$$

21:35:40 wx upd begin $$$

21:35:41 received UUWW 102100Z 22003MPS CAVOK 15/14 Q1009 R24/000070 NOSIG

21:35:41 wx upd end $$$

21:38:24 wx upd begin $$$

21:38:24 received UUWW 102100Z 22003MPS CAVOK 15/14 Q1009 R24/000070 NOSIG

21:38:24 wx upd end $$$

21:40:54 wx upd begin $$$

21:40:54 received UUWW 102130Z 21003MPS CAVOK 14/14 Q1008 R24/000070 NOSIG

21:40:54 UUWW STAB-5 BASE2900 LRATE10.000000 clear

21:40:54 wx generated for UUWW UUWW 102130Z 21003MPS CAVOK 14/14 Q1008 R24/000070 NOSIG

21:40:55 UUWW 1008mb

21:40:55 UUWW 14C -> 0C

21:40:56 KSC set to 87 based on wx

21:40:56 fs9 wx updated for UUWW

21:40:56 wx upd end $$$

21:43:11 wx upd begin $$$

21:43:11 received UUWW 102130Z 21003MPS CAVOK 14/14 Q1008 R24/000070 NOSIG

21:43:11 wx upd end $$$

21:44:45 wx upd begin $$$

21:44:46 received UUWW 102130Z 21003MPS CAVOK 14/14 Q1008 R24/000070 NOSIG

21:44:46 wx upd end $$$

21:46:24 wx upd begin $$$

21:46:25 received UUWW 102130Z 21003MPS CAVOK 14/14 Q1008 R24/000070 NOSIG

21:46:25 wx upd end $$$

21:47:59 wx upd begin $$$

21:47:59 received UUWW 102130Z 21003MPS CAVOK 14/14 Q1008 R24/000070 NOSIG

21:47:59 wx upd end $$$

 

 

Share this post


Link to post
Share on other sites

Ещё кстати в портах с нулевой или отрицательной высотой (EHAM, URWA, UATG) бывает завышенная температура. В окошке показывается +2. А термометр на панели самолёта показывает + 40. Если исправить в station.dat и station_fs.dat высоту аэродрома на 1, то всё становится нормально.

 

А ещё нужно в station.dat заменить:

UKFF → URFF

UGEE → UDYZ

UGGG → UGTB.

 

Так как по старым кодам погода уже не выдаётся. В station_fs.dat ничего исправлять не надо, т.к в симе названия не меняются.

Edited by Anchor
  • Downvote 1

Share this post


Link to post
Share on other sites

Стоит FSatis 13.12.17 видимость на эшелоне падает резко, что может быть?

Share this post


Link to post
Share on other sites

Доброго всем! Добрые люди, в связи с отсутствием интернета постоянного, нет возможности перелопатить всю ветку, а потому, подскажите пожалуйста: есть у ФсАтиса возможность брать погоду из файла с метарами, без интернета, али нет? Если да, научите пожалуйста...

Share this post


Link to post
Share on other sites

Доброго всем! Добрые люди, в связи с отсутствием интернета постоянного, нет возможности перелопатить всю ветку, а потому, подскажите пожалуйста: есть у ФсАтиса возможность брать погоду из файла с метарами, без интернета, али нет? Если да, научите пожалуйста...

Мы Вас уже заждались. Где Вы пропадали?

  • Upvote 2

Share this post


Link to post
Share on other sites

Не знаю, как из файла, а из Инета не берет. Не пашет он у меня

Share this post


Link to post
Share on other sites

Стою на стоянке. WX Processing включен - видимость нулевая. Выключаю - видимость нормальная. С чем это может быть связано?  

Порт в meteo.dat прописывал вручную. При прослушивании информации АТИС порта озвучивает не корректно типа "Новэмбе-Ромео, ВПП Ромео ..."

Share this post


Link to post
Share on other sites

Разобрался. Без этого параметра не происходит обновления погоды. А видимость нулевая была исходя из метара. Так же и озвучка ВПП "Ромео" по метару. Единственное непонятно - почему название порта озвучивает ненормально?

Share this post


Link to post
Share on other sites

Join the conversation

You can post now and register later. If you have an account, sign in now to post with your account.
Note: Your post will require moderator approval before it will be visible.

Guest
Reply to this topic...

×   Pasted as rich text.   Paste as plain text instead

  Only 75 emoji are allowed.

×   Your link has been automatically embedded.   Display as a link instead

×   Your previous content has been restored.   Clear editor

×   You cannot paste images directly. Upload or insert images from URL.

Loading...
Sign in to follow this  

  • Recently Browsing   0 members

    No registered users viewing this page.

×
×
  • Create New...